H1 CPF 2 NER 2022 7 31 9 212 01 glonass143 H2 2007501 9143 46805 2022 7 31 0 0 0 2022 8 3 23 45 0 900 1 1 0 0 0 1 H9 10 0 59791 0.00000 0 -6912567.407 24045875.813 4937834.942 10 0 59791 900.00000 0 -6913407.955 24482175.620 1758770.767 10 0 59791 1800.00000 0 -6777025.450 24538212.797 -1454490.472 10 0 59791 2700.00000 0 -6556462.707 24198478.126 -4639459.951 10 0 59791 3600.00000 0 -6307219.775 23460619.001 -7734174.261 10 0 59791 4500.00000 0 -6084670.169 22335633.403 -10678408.286 10 0 59791 5400.00000 0 -5941488.235 20847519.806 -13414855.118 10 0 59791 6300.00000 0 -5925197.710 19032396.905 -15890249.163 10 0 59791 7200.00000 0 -6075946.510 16937129.611 -18056409.679 10 0 59791 8100.00000 0 -6424603.066 14617518.662 -19871183.850 10 0 59791 9000.00000 0 -6991255.793 12136129.611 -21299270.658 10 0 59791 9900.00000 0 -7784180.037 9559852.158 -22312909.266 10 0 59791 10800.00000 0 -8799316.883 6957291.913 -22892418.653 10 0 59791 11700.00000 0 -10020286.480 4396103.516 -23026578.193 10 0 59791 12600.00000 0 -11418935.784 1940376.331 -22712842.136 10 0 59791 13500.00000 0 -12956398.080 -351818.668 -21957384.210 10 0 59791 14400.00000 0 -14584620.036 -2430619.187 -20774971.921 10 0 59791 15300.00000 0 -16248292.278 -4256208.629 -19188673.330 10 0 59791 16200.00000 0 -17887102.569 -5800224.470 -17229402.371 10 0 59791 17100.00000 0 -19438217.066 -7046680.709 -14935311.790 10 0 59791 18000.00000 0 -20838885.504 -7992367.498 -12351045.782 10 0 59791 18900.00000 0 -22029060.960 -8646713.132 -9526867.121 10 0 59791 19800.00000 0 -22953924.250 -9031116.134 -6517675.924 10 0 59791 20700.00000 0 -23566206.978 -9177777.332 -3381939.539 10 0 59791 21600.00000 0 -23828215.811 -9128082.877 -180554.563 10 0 59791 22500.00000 0 -23713473.125 -8930607.847 3024336.590 10 0 59791 23400.00000 0 -23207905.358 -8638825.871 6170551.274 10 0 59791 24300.00000 0 -22310529.441 -8308622.390 9197070.857 10 0 59791 25200.00000 0 -21033608.731 -7995717.117 12045220.263 10 0 59791 26100.00000 0 -19402272.092 -7753104.798 14659800.081 10 0 59791 27000.00000 0 -17453612.062 -7628622.290 16990149.739 10 0 59791 27900.00000 0 -15235299.619 -7662744.437 18991121.771 10 0 59791 28800.00000 0 -12803772.987 -7886701.371 20623949.015 10 0 59791 29700.00000 0 -10222075.316 -8320996.334 21856988.847 10 0 59791 30600.00000 0 -7557430.245 -8974386.347 22666330.892 10 0 59791 31500.00000 0 -4878655.143 -9843368.758 23036257.145 10 0 59791 32400.00000 0 -2253518.116 -10912195.784 22959546.159 10 0 59791 33300.00000 0 253852.846 -12153417.331 22437615.644 10 0 59791 34200.00000 0 2585402.320 -13528930.483 21480500.589 10 0 59791 35100.00000 0 4691321.753 -14991493.090 20106666.906 10 0 59791 36000.00000 0 6531876.369 -16486639.539 18342663.430 10 0 59791 36900.00000 0 8078809.470 -17954919.798 16222618.013 10 0 59791 37800.00000 0 9316266.288 -19334369.148 13787586.393 10 0 59791 38700.00000 0 10241199.309 -20563105.870 11084765.265 10 0 59791 39600.00000 0 10863238.361 -21581948.303 8166583.892 10 0 59791 40500.00000 0 11204031.193 -22336941.334 5089691.113 10 0 59791 41400.00000 0 11296082.519 -22781685.635 1913856.900 10 0 59791 42300.00000 0 11181140.680 -22879370.757 -1299190.174 10 0 59791 43200.00000 0 10908200.467 -22604425.335 -4486966.762 10 0 59791 44100.00000 0 10531207.085 -21943713.546 -7587455.894 10 0 59791 45000.00000 0 10106559.111 -20897226.042 -10540320.836 10 0 59791 45900.00000 0 9690517.077 -19478234.929 -13288087.164 10 0 59791 46800.00000 0 9336628.397 -17712905.101 -15777269.139 10 0 59791 47700.00000 0 9093278.686 -15639377.352 -17959417.582 10 0 59791 48600.00000 0 9001474.104 -13306361.077 -19792068.224 10 0 59791 49500.00000 0 9092949.457 -10771295.081 -21239571.713 10 0 59791 50400.00000 0 9388682.750 -8098153.306 -22273788.857 10 0 59791 51300.00000 0 9897879.522 -5354987.046 -22874637.678 10 0 59791 52200.00000 0 10617470.255 -2611306.111 -23030481.884 10 0 59791 53100.00000 0 11532142.310 64591.902 -22738353.481 10 0 59791 54000.00000 0 12614905.168 2608233.300 -22004005.659 10 0 59791 54900.00000 0 13828165.264 4961412.663 -20841795.300 10 0 59791 55800.00000 0 15125265.099 7074368.758 -19274397.766 10 0 59791 56700.00000 0 16452421.832 8907602.383 -17332359.859 10 0 59791 57600.00000 0 17750983.698 10433261.657 -15053499.870 10 0 59791 58500.00000 0 18959909.179 11636038.363 -12482166.700 10 0 59791 59400.00000 0 20018364.545 12513539.679 -9668372.663 10 0 59791 60300.00000 0 20868330.369 13076121.580 -6666817.085 10 0 59791 61200.00000 0 21457107.241 13346192.737 -3535820.011 10 0 59791 62100.00000 0 21739615.254 13357020.062 -336187.036 10 0 59791 63000.00000 0 21680390.513 13151087.789 2869972.426 10 0 59791 63900.00000 0 21255194.759 12778080.622 6020450.168 10 0 59791 64800.00000 0 20452170.541 12292577.137 9054143.995 10 0 59791 65700.00000 0 19272493.433 11751551.440 11912238.977 10 0 59791 66600.00000 0 17730493.955 11211788.918 14539342.338 10 0 59791 67500.00000 0 15853243.927 10727325.128 16884550.443 10 0 59791 68400.00000 0 13679624.226 10347015.631 18902427.820 10 0 59791 69300.00000 0 11258912.383 10112338.773 20553879.937 10 0 59791 70200.00000 0 8648948.123 10055523.495 21806903.746 10 0 59791 71100.00000 0 5913952.178 10198080.537 22637202.293 10 0 59791 72000.00000 0 3122087.907 10549798.580 23028652.223 10 0 59791 72900.00000 0 342865.592 11108247.526 22973615.688 10 0 59791 73800.00000 0 -2355504.358 11858810.174 22473090.862 10 0 59791 74700.00000 0 -4908700.818 12775241.635 21536698.070 10 0 59791 75600.00000 0 -7258717.909 13820734.026 20182501.376 10 0 59791 76500.00000 0 -9356027.996 14949442.951 18436668.305 10 0 59791 77400.00000 0 -11161392.626 16108412.929 16332973.355 10 0 59791 78300.00000 0 -12647246.841 17239822.115 13912153.763 10 0 59791 79200.00000 0 -13798599.553 18283452.905 11221128.865 10 0 59791 80100.00000 0 -14613412.648 19179285.149 8312097.238 10 0 59791 81000.00000 0 -15102443.134 19870102.995 5241528.326 10 0 59791 81900.00000 0 -15288555.134 20304005.273 2069067.645 10 0 59791 82800.00000 0 -15205530.790 20436712.915 -1143623.207 10 0 59791 83700.00000 0 -14896430.541 20233574.998 -4334068.965 10 0 59791 84600.00000 0 -14411572.415 19671187.450 -7440201.609 10 0 59791 85500.00000 0 -13806216.318 18738554.667 -10401575.178 10 0 59792 0.00000 0 -13138052.100 17437743.706 -13160549.707 10 0 59792 900.00000 0 -12464598.145 15784001.243 -15663421.816 10 0 59792 1800.00000 0 -11840622.377 13805329.038 -17861475.368 10 0 59792 2700.00000 0 -11315694.428 11541532.329 -19711936.111 10 0 59792 3600.00000 0 -10931974.106 9042781.955 -21178807.522 10 0 59792 4500.00000 0 -10722329.869 6367749.281 -22233572.906 10 0 59792 5400.00000 0 -10708867.209 3581391.605 -22855749.881 10 0 59792 6300.00000 0 -10901929.254 752480.214 -23033286.709 10 0 59792 7200.00000 0 -11299611.745 -2049025.986 -22762793.047 10 0 59792 8100.00000 0 -11887812.676 -4754652.168 -22049601.087 10 0 59792 9000.00000 0 -12640814.281 -7300013.791 -20907656.270 10 0 59792 9900.00000 0 -13522372.481 -9627249.312 -19359240.094 10 0 59792 10800.00000 0 -14487267.558 -11687178.960 -17434530.731 10 0 59792 11700.00000 0 -15483250.365 -13441100.670 -15171010.244 10 0 59792 12600.00000 0 -16453301.710 -14862149.482 -12612730.242 10 0 59792 13500.00000 0 -17338109.401 -15936165.177 -9809450.433 10 0 59792 14400.00000 0 -18078658.262 -16662033.536 -6815667.097 10 0 59792 15300.00000 0 -18618823.744 -17051488.642 -3689550.677 10 0 59792 16200.00000 0 -18907859.608 -17128386.330 -491813.436 10 0 59792 17100.00000 0 -18902674.738 -16927481.001 2715470.580 10 0 59792 18000.00000 0 -18569803.091 -16492758.756 5870069.985 10 0 59792 18900.00000 0 -17886983.794 -15875398.288 8910801.428 10 0 59792 19800.00000 0 -16844284.850 -15131446.360 11778712.523 10 0 59792 20700.00000 0 -15444723.130 -14319306.364 14418219.482 10 0 59792 21600.00000 0 -13704354.396 -13497145.974 16778177.848 10 0 59792 22500.00000 0 -11651829.141 -12720332.921 18812866.199 10 0 59792 23400.00000 0 -9327432.224 -12039006.422 20482864.439 10 0 59792 24300.00000 0 -6781645.504 -11495885.837 21755810.586 10 0 59792 25200.00000 0 -4073292.222 -11124408.016 22607022.258 10 0 59792 26100.00000 0 -1267339.051 -10947271.039 23019971.533 10 0 59792 27000.00000 0 1567554.339 -10975445.081 22986604.570 10 0 59792 27900.00000 0 4361638.113 -11207691.776 22507500.081 10 0 59792 28800.00000 0 7046720.933 -11630612.474 21591863.479 10 0 59792 29700.00000 0 9558756.074 -12219223.827 20257356.418 10 0 59792 30600.00000 0 11840258.915 -12938037.327 18529764.276 10 0 59792 31500.00000 0 13842456.279 -13742598.352 16442507.052 10 0 59792 32400.00000 0 15527079.031 -14581421.024 14036002.029 10 0 59792 33300.00000 0 16867723.662 -15398238.316 11356889.401 10 0 59792 34200.00000 0 17850726.231 -16134473.310 8457134.927 10 0 59792 35100.00000 0 18475512.222 -16731827.734 5393026.198 10 0 59792 36000.00000 0 18754407.651 -17134878.475 2224081.518 10 0 59792 36900.00000 0 18711919.374 -17293571.906 -988107.464 10 0 59792 37800.00000 0 18383515.013 -17165509.782 -4181076.658 10 0 59792 38700.00000 0 17813954.204 -16717928.843 -7292710.132 10 0 59792 39600.00000 0 17055241.992 -15929289.069 -10262455.766 10 0 59792 40500.00000 0 16164291.439 -14790401.927 -13032511.462 10 0 59792 41400.00000 0 15200394.926 -13305049.420 -15548957.936 10 0 59792 42300.00000 0 14222611.779 -11490066.404 -17762815.095 10 0 59792 43200.00000 0 13287183.400 -9374881.379 -19631000.871 10 0 59792 44100.00000 0 12445085.699 -7000533.938 -21117173.392 10 0 59792 45000.00000 0 11739822.695 -4418209.237 -22192439.873 10 0 59792 45900.00000 0 11205554.621 -1687350.180 -22835918.502 10 0 59792 46800.00000 0 10865639.520 1126574.354 -23035142.594 10 0 59792 47700.00000 0 10731649.584 3954552.381 -22786299.494 10 0 59792 48600.00000 0 10802903.310 6726659.696 -22094299.965 10 0 59792 49500.00000 0 11066532.588 9374729.598 -20972677.156 10 0 59792 50400.00000 0 11498081.259 11834950.655 -19443317.446 10 0 59792 51300.00000 0 12062609.186 14050285.021 -17536028.751 10 0 59792 52200.00000 0 12716254.618 15972607.360 -15287954.949 10 0 59792 53100.00000 0 13408188.294 17564476.135 -12742848.065 10 0 59792 54000.00000 0 14082876.245 18800464.578 -9950212.623 10 0 59792 54900.00000 0 14682555.319 19667997.108 -6964339.016 10 0 59792 55800.00000 0 15149816.486 20167657.700 -3843245.039 10 0 59792 56700.00000 0 15430186.564 20312958.905 -647546.433 10 0 59792 57600.00000 0 15474599.143 20129582.824 2560721.341 10 0 59792 58500.00000 0 15241650.264 19654127.409 5719306.890 10 0 59792 59400.00000 0 14699543.619 18932412.110 8766948.716 10 0 59792 60300.00000 0 13827643.168 18017415.191 11644559.758 10 0 59792 61200.00000 0 12617567.682 16966930.166 14296367.707 10 0 59792 62100.00000 0 11073780.930 15841040.303 16670989.455 10 0 59792 63000.00000 0 9213652.264 14699517.331 18722419.453 10 0 59792 63900.00000 0 7066984.470 13599253.351 20410913.513 10 0 59792 64800.00000 0 4675027.652 12591833.192 21703751.830 10 0 59792 65700.00000 0 2089019.131 11721348.321 22575867.324 10 0 59792 66600.00000 0 -631691.171 11022543.228 23010327.828 10 0 59792 67500.00000 0 -3421853.496 10519371.260 22998663.421 10 0 59792 68400.00000 0 -6212778.901 10224019.873 22541032.798 10 0 59792 69300.00000 0 -8934947.256 10136445.897 21646225.436 10 0 59792 70200.00000 0 -11520655.901 10244440.270 20331499.094 10 0 59792 71100.00000 0 -13906600.413 10524219.806 18622255.061 10 0 59792 72000.00000 0 -16036281.260 10941521.666 16551556.495 10 0 59792 72900.00000 0 -17862137.061 11453155.175 14159498.071 10 0 59792 73800.00000 0 -19347316.100 12008946.311 11492437.962 10 0 59792 74700.00000 0 -20467012.250 12553993.541 8602106.118 10 0 59792 75600.00000 0 -21209309.519 13031140.118 5544605.271 10 0 59792 76500.00000 0 -21575499.651 13383558.476 2379323.573 10 0 59792 77400.00000 0 -21579859.231 13557337.093 -832220.098 10 0 59792 78300.00000 0 -21248895.598 13503959.685 -4027575.519 10 0 59792 79200.00000 0 -20620093.300 13182570.723 -7144581.358 10 0 59792 80100.00000 0 -19740214.126 12561930.100 -10122581.679 10 0 59792 81000.00000 0 -18663222.823 11621972.725 -12903614.153 10 0 59792 81900.00000 0 -17447926.576 10354905.534 -15433545.979 10 0 59792 82800.00000 0 -16155428.522 8765794.048 -17663134.457 10 0 59792 83700.00000 0 -14846503.429 6872612.297 -19548990.978 10 0 59792 84600.00000 0 -13579006.801 4705752.632 -21054429.239 10 0 59792 85500.00000 0 -12405427.091 2307014.995 -22150180.902 10 0 59793 0.00000 0 -11370684.437 -271882.707 -22814964.838 10 0 59793 900.00000 0 -10510268.055 -2971212.924 -23035899.323 10 0 59793 1800.00000 0 -9848791.700 -5725482.751 -22808748.731 10 0 59793 2700.00000 0 -9399025.580 -8465925.640 -22138001.487 10 0 59793 3600.00000 0 -9161446.070 -11123133.622 -21036777.212 10 0 59793 4500.00000 0 -9124320.628 -13629722.109 -19526565.640 10 0 59793 5400.00000 0 -9264323.442 -15922916.485 -17636802.675 10 0 59793 6300.00000 0 -9547654.734 -17946953.360 -15404292.045 10 0 59793 7200.00000 0 -9931615.560 -19655196.970 -12872484.111 10 0 59793 8100.00000 0 -10366570.696 -21011883.376 -10090626.059 10 0 59793 9000.00000 0 -10798215.902 -21993420.672 -7112800.228 10 0 59793 9900.00000 0 -11170053.154 -22589191.960 -3996869.618 10 0 59793 10800.00000 0 -11425968.657 -22801828.912 -803351.345 10 0 59793 11700.00000 0 -11512804.318 -22646945.786 2405759.798 10 0 59793 12600.00000 0 -11382813.744 -22152346.438 5568194.458 10 0 59793 13500.00000 0 -10995898.831 -21356738.913 8622615.062 10 0 59793 14400.00000 0 -10321532.432 -20308012.650 11509801.928 10 0 59793 15300.00000 0 -9340285.875 -19061151.461 14173796.261 10 0 59793 16200.00000 0 -8044896.814 -17675870.397 16562978.265 10 0 59793 17100.00000 0 -6440832.097 -16214075.774 18631060.109 10 0 59793 18000.00000 0 -4546321.479 -14737254.683 20337975.167 10 0 59793 18900.00000 0 -2391859.888 -13303902.848 21650647.229 10 0 59793 19800.00000 0 -19197.869 -11967097.757 22543625.641 10 0 59793 20700.00000 0 2520138.991 -10772317.794 22999574.811 10 0 59793 21600.00000 0 5166741.646 -9755597.635 23009609.222 10 0 59793 22500.00000 0 7855543.238 -8942096.237 22573467.731 10 0 59793 23400.00000 0 10518287.992 -8345136.674 21699523.748 10 0 59793 24300.00000 0 13086142.481 -7965757.553 20404630.708 10 0 59793 25200.00000 0 15492342.289 -7792794.623 18713805.097 10 0 59793 26100.00000 0 17674765.161 -7803489.263 16659752.232 10 0 59793 27000.00000 0 19578324.476 -7964598.526 14282242.861 10 0 59793 27900.00000 0 21157083.827 -8233960.440 11627351.500 10 0 59793 28800.00000 0 22376004.580 -8562448.998 8746570.296 10 0 59793 29700.00000 0 23212253.261 -8896236.615 5695814.787 10 0 59793 30600.00000 0 23656013.740 -9179268.481 2534340.305 10 0 59793 31500.00000 0 23710769.679 -9355843.932 -676409.965 10 0 59793 32400.00000 0 23393045.052 -9373194.959 -3874002.763 10 0 59793 33300.00000 0 22731613.354 -9183951.736 -6996234.526 10 0 59793 34200.00000 0 21766208.717 -8748389.539 -9982348.615 10 0 59793 35100.00000 0 20545793.340 -8036360.516 -12774225.449 10 0 59793 36000.00000 0 19126454.575 -7028826.967 -15317521.461 10 0 59793 36900.00000 0 17569020.746 -5718929.804 -17562733.829 10 0 59793 37800.00000 0 15936496.718 -4112545.522 -19466169.586 10 0 59793 38700.00000 0 14291427.679 -2228306.764 -20990799.842 10 0 59793 39600.00000 0 12693302.539 -97084.420 -22106982.208 10 0 59793 40500.00000 0 11196106.355 2239048.102 -22793037.432 10 0 59793 41400.00000 0 9846124.586 4728325.917 -23035669.231 10 0 59793 42300.00000 0 8680091.140 7311216.411 -22830219.451 10 0 59793 43200.00000 0 7723757.309 9922675.912 -22180754.033 10 0 59793 44100.00000 0 6990940.819 12494645.522 -21099978.483 10 0 59793 45000.00000 0 6483093.808 14958682.338 -19608984.885 10 0 59793 45900.00000 0 6189406.578 17248616.728 -17736835.698 10 0 59793 46800.00000 0 6087441.394 19303125.268 -15519992.679 10 0 59793 47700.00000 0 6144268.261 21068112.432 -13001602.317 10 0 59793 48600.00000 0 6318053.482 22498802.231 -10230651.903 10 0 59793 49500.00000 0 6560032.775 23561453.192 -7261012.852 10 0 59793 50400.00000 0 6816784.614 24234625.759 -4150390.240 10 0 59793 51300.00000 0 7032706.866 24509950.170 -959199.237 10 0 59793 52200.00000 0 7152591.403 24392363.716 2250609.434 10 0 59793 53100.00000 0 7124187.362 23899808.590 5416751.869 10 0 59793 54000.00000 0 6900644.429 23062404.148 8477817.690 10 0 59793 54900.00000 0 6442732.690 21921129.260 11374457.673 10 0 59793 55800.00000 0 5720745.279 20526070.834 14050529.331 10 0 59793 56700.00000 0 4716003.387 18934312.450 16454178.653 10 0 59793 57600.00000 0 3421900.015 17207551.760 18538837.634 10 0 59793 58500.00000 0 1844438.162 15409546.274 20264118.934 10 0 59793 59400.00000 0 2240.128 13603493.918 21596591.254 10 0 59793 60300.00000 0 -2073973.468 11849457.086 22510421.261 10 0 59793 61200.00000 0 -4342414.436 10201936.876 22987870.387 10 0 59793 62100.00000 0 -6751726.082 8707697.730 23019637.485 10 0 59793 63000.00000 0 -9242889.879 7403932.214 22605041.039 10 0 59793 63900.00000 0 -11751462.076 6316841.661 21752037.327 10 0 59793 64800.00000 0 -14210049.025 5460691.160 20477073.869 10 0 59793 65700.00000 0 -16550919.811 4837377.857 18804780.245 10 0 59793 66600.00000 0 -18708648.751 4436530.353 16767501.365 10 0 59793 67500.00000 0 -20622678.708 4236134.923 14404681.101 10 0 59793 68400.00000 0 -22239698.946 4203662.312 11762107.068 10 0 59793 69300.00000 0 -23515738.379 4297647.841 8891030.206 10 0 59793 70200.00000 0 -24417886.560 4469658.307 5847175.400 10 0 59793 71100.00000 0 -24925569.911 4666562.590 2689661.773 10 0 59793 72000.00000 0 -25031329.018 4833009.746 -520146.449 10 0 59793 72900.00000 0 -24741063.745 4914009.155 -3719836.022 10 0 59793 73800.00000 0 -24073735.244 4857502.639 -6847163.978 10 0 59793 74700.00000 0 -23060536.994 4616818.481 -9841275.555 10 0 59793 75600.00000 0 -21743569.540 4152902.093 -12643896.205 10 0 59793 76500.00000 0 -20174074.750 3436227.383 -15200473.591 10 0 59793 77400.00000 0 -18410304.133 2448306.481 -17461246.396 10 0 59793 78300.00000 0 -16515111.282 1182732.499 -19382218.518 10 0 59793 79200.00000 0 -14553370.048 -354290.130 -20926019.250 10 0 59793 80100.00000 0 -12589327.328 -2143951.301 -22062632.432 10 0 59793 81000.00000 0 -10684001.789 -4155377.823 -22769980.438 10 0 59793 81900.00000 0 -8892737.639 -6346691.118 -23034351.850 10 0 59793 82800.00000 0 -7263015.756 -8666536.427 -22850664.784 10 0 59793 83700.00000 0 -5832613.283 -11056020.148 -22222561.179 10 0 59793 84600.00000 0 -4628187.924 -13450974.821 -21162330.595 10 0 59793 85500.00000 0 -3664345.123 -15784457.408 -19690665.368 10 0 59794 0.00000 0 -2943225.891 -17989376.717 -17836252.413 10 0 59794 900.00000 0 -2454630.652 -20001141.690 -15635208.773 10 0 59794 1800.00000 0 -2176673.219 -21760217.273 -13130374.769 10 0 59794 2700.00000 0 -2076934.441 -23214485.418 -10370475.355 10 0 59794 3600.00000 0 -2114066.397 -24321309.951 -7409168.648 10 0 59794 4500.00000 0 -2239777.674 -25049220.677 -4303999.532 10 0 59794 5400.00000 0 -2401114.784 -25379146.715 -1115279.092 10 0 59794 6300.00000 0 -2542942.351 -25305148.188 2095088.048 10 0 59794 7200.00000 0 -2610516.565 -24834616.460 5264805.346 10 0 59794 8100.00000 0 -2552042.573 -23987935.440 8332391.453 10 0 59794 9000.00000 0 -2321107.456 -22797618.937 11238369.363 10 0 59794 9900.00000 0 -1878885.873 -21306960.949 13926414.569 10 0 59794 10800.00000 0 -1196025.183 -19568255.878 16344440.414 10 0 59794 11700.00000 0 -254130.453 -17640663.331 18445600.146 10 0 59794 12600.00000 0 953213.395 -15587806.717 20189186.955 10 0 59794 13500.00000 0 2419925.737 -13475205.484 21541415.467 10 0 59794 14400.00000 0 4127443.116 -11367647.422 22476070.418 10 0 59794 15300.00000 0 6045261.344 -9326609.663 22975010.726 10 0 59794 16200.00000 0 8131985.525 -7407834.739 23028519.796 10 0 59794 17100.00000 0 10336845.820 -5659161.469 22635495.630 10 0 59794 18000.00000 0 12601617.401 -4118699.988 21803477.011 10 0 59794 18900.00000 0 14862866.393 -2813425.958 20548504.935 10 0 59794 19800.00000 0 17054429.890 -1758251.779 18894821.238 10 0 59794 20700.00000 0 19110028.046 -955613.060 16874409.354 10 0 59794 21600.00000 0 20965900.476 -395587.221 14526384.982 10 0 59794 22500.00000 0 22563357.597 -56539.059 11896247.294 10 0 59794 23400.00000 0 23851140.519 93733.914 9035004.216 10 0 59794 24300.00000 0 24787490.628 96404.674 5998187.897 10 0 59794 25200.00000 0 25341841.630 -364.125 2844778.903 10 0 59794 26100.00000 0 25496062.329 -143701.018 -363940.073 10 0 59794 27000.00000 0 25245197.076 -278509.699 -3565578.548 10 0 59794 27900.00000 0 24597671.884 -350050.165 -6697856.967 10 0 59794 28800.00000 0 23574956.796 -306506.766 -9699825.244 10 0 59794 29700.00000 0 22210698.116 -101433.131 -12513056.556 10 0 59794 30600.00000 0 20549356.696 304030.913 -15082792.305 10 0 59794 31500.00000 0 18644409.429 939265.671 -17359014.953 10 0 59794 32400.00000 0 16556189.671 1822682.683 -19297427.299 10 0 59794 33300.00000 0 14349457.429 2960704.839 -20860318.595 10 0 59794 34200.00000 0 12090801.613 4347259.767 -22017300.430 10 0 59794 35100.00000 0 9845983.346 5963808.916 -22745898.065 10 0 59794 36000.00000 0 7677331.650 7779912.074 -23031985.911 10 0 59794 36900.00000 0 5641300.300 9754304.347 -22870058.990 10 0 59794 37800.00000 0 3786287.535 11836441.040 -22263335.509 10 0 59794 38700.00000 0 2150808.980 13968446.246 -21223688.942 10 0 59794 39600.00000 0 762099.141 16087383.824 -19771411.303 10 0 59794 40500.00000 0 -364801.403 18127756.075 -17934812.583 10 0 59794 41400.00000 0 -1227436.529 20024125.784 -15749664.318 10 0 59794 42300.00000 0 -1835788.095 21713752.050 -13258498.462 10 0 59794 43200.00000 0 -2211600.508 23139129.835 -10509775.335 10 0 59794 44100.00000 0 -2387206.513 24250327.134 -7556937.098 10 0 59794 45000.00000 0 -2403905.291 25007022.139 -4457365.473 10 0 59794 45900.00000 0 -2309962.801 25380155.470 -1271264.249 10 0 59794 46800.00000 0 -2158320.019 25353128.684 1939511.403 10 0 59794 47700.00000 0 -2004106.862 24922499.399 5112655.727 10 0 59794 48600.00000 0 -1902067.567 24098144.488 8186619.792 10 0 59794 49500.00000 0 -1904006.798 22902885.135 11101802.066 10 0 59794 50400.00000 0 -2056364.553 21371589.948 13801699.094 10 0 59794 51300.00000 0 -2398022.356 19549794.062 16233994.377 10 0 59794 52200.00000 0 -2958433.271 17491892.064 18351564.910 10 0 59794 53100.00000 0 -3756154.558 15258980.143 20113386.559 10 0 59794 54000.00000 0 -4797844.917 12916437.017 21485321.630 10 0 59794 54900.00000 0 -6077768.889 10531343.733 22440774.272 10 0 59794 55800.00000 0 -7577829.940 8169848.828 22961201.758 10 0 59794 56700.00000 0 -9268131.891 5894587.327 23036472.421 10 0 59794 57600.00000 0 -11108046.596 3762259.635 22665063.611 10 0 59794 58500.00000 0 -13047744.777 1821469.855 21854095.873 10 0 59794 59400.00000 0 -15030127.777 110912.260 20619202.344 10 0 59794 60300.00000 0 -16993081.285 -1342019.566 18984235.203 10 0 59794 61200.00000 0 -18871958.351 -2522143.676 16980813.959 10 0 59794 62100.00000 0 -20602189.240 -3426883.367 14647723.205 10 0 59794 63000.00000 0 -22121909.870 -4066127.429 12030170.356 10 0 59794 63900.00000 0 -23374499.167 -4461563.056 9178916.741 10 0 59794 64800.00000 0 -24310919.049 -4645509.734 6149298.049 10 0 59794 65700.00000 0 -24891758.407 -4659303.373 3000152.529 10 0 59794 66600.00000 0 -25088894.441 -4551299.151 -207322.324 10 0 59794 67500.00000 0 -24886700.534 -4374577.929 -3410762.311 10 0 59794 68400.00000 0 -24282748.750 -4184453.919 -6547854.583 10 0 59794 69300.00000 0 -23287976.332 -4035890.000 -9557556.756 10 0 59794 70200.00000 0 -21926308.273 -3980931.224 -12381292.469 10 0 59794 71100.00000 0 -20233751.101 -4066266.433 -14964099.229 10 0 59794 72000.00000 0 -18256995.548 -4331022.495 -17255705.270 10 0 59794 72900.00000 0 -16051586.579 -4804885.767 -19211513.793 10 0 59794 73800.00000 0 -13679737.463 -5506631.450 -20793475.001 10 0 59794 74700.00000 0 -11207879.684 -6443123.998 -21970828.639 10 0 59794 75600.00000 0 -8704051.295 -7608831.726 -22720702.649 10 0 59794 76500.00000 0 -6235232.934 -8985876.899 -23028556.489 10 0 59794 77400.00000 0 -3864742.719 -10544619.815 -22888460.760 10 0 59794 78300.00000 0 -1649798.389 -12244752.878 -22303208.139 10 0 59794 79200.00000 0 360652.218 -14036859.134 -21284253.830 10 0 59794 80100.00000 0 2127742.695 -15864370.137 -19851487.058 10 0 59794 81000.00000 0 3624067.192 -17665841.243 -18032838.382 10 0 59794 81900.00000 0 4834571.044 -19377449.089 -15863730.695 10 0 59794 82800.00000 0 5756917.265 -20935606.590 -13386384.852 10 0 59794 83700.00000 0 6401315.463 -22279585.865 -10648993.665 10 0 59794 84600.00000 0 6789822.224 -23354039.198 -7704780.503 10 0 59794 85500.00000 0 6955144.237 -24111312.315 -4610961.187 99